www.pogodaiklimat.ru

Погода и климат >> Архив погоды >> Швейцария >> Лайбштадт


ПОГОДА в Лайбштадте

  • Прогноз погоды в Лайбштадте
  • Монитор погоды в Лайбштадте

АРХИВ ПОГОДЫ в Лайбштадте

Время (UTC), дата Ветер
(напр.,м/с)
 
Видим.   Явления Облачность Т
(С)
Тd
(С)
f
(%)
Тe
(С)
Тes
(С)
Комфортность P
(гПа)
Po
(гПа)
Тmin
(С)
Tmax
(С)
R
(мм)
R24
(мм)
S
(см)
01 13.07 З 2
{5}
н/о н/о +15.2 +14.0 93 +15 +15 1016.0 975.9 0.7
02 13.07 З 3
{5}
н/о н/о +14.5 +13.6 94 +14 +14 1016.5 976.3
03 13.07 СЗ 1
{5}
н/о н/о +14.5 +13.8 96 +15 +15 1016.8 976.6
04 13.07 Ю 1
{3}
н/о н/о +13.6 +13.3 98 +14 +14 1017.7 977.3
05 13.07 З 2
{3}
н/о н/о +14.1 +13.6 97 +14 +14 1017.7 977.4
06 13.07 ЮВ 1
{5}
н/о н/о +15.4 +13.9 91 +17 +17 1018.0 977.9 +13.5
07 13.07 СВ 1
{2}
н/о н/о +16.9 +14.0 83 +18 +18 1018.3 978.4
08 13.07 З 1
{2}
н/о н/о +17.5 +12.5 72 +19 +19 1018.2 978.4
09 13.07 З 3
{5}
н/о н/о +20.2 +11.5 57 +22 +22 комфорт 1017.7 978.3
10 13.07 З 3
{7}
н/о н/о +21.1 +10.9 52 +23 +23 комфорт 1017.5 978.2
11 13.07 З 4
{6}
н/о н/о +20.8 +10.8 53 +23 +23 комфорт 1017.3 978.0
12 13.07 З 3
{7}
н/о н/о +21.8 +9.8 46 +23 +23 комфорт 1017.1 977.9
13 13.07 З 3
{8}
н/о н/о +22.6 +9.1 42 +24 +24 комфорт 1016.6 977.5
14 13.07 З 4
{8}
н/о н/о +23.5 +9.7 42 +25 +25 комфорт 1016.3 977.4
15 13.07 З 4
{8}
н/о н/о +23.0 +9.6 43 +25 +25 комфорт 1016.2 977.2
16 13.07 З 4
{7}
н/о н/о +23.4 +9.2 40 +25 +25 комфорт 1015.8 976.9
17 13.07 З 4
{7}
н/о н/о +22.6 +8.8 41 +24 +24 комфорт 1015.8 976.8
18 13.07 СЗ 3
{8}
н/о н/о +22.3 +9.1 43 +24 +24 комфорт 1016.0 976.9 +23.7
19 13.07 З 2
{4}
н/о н/о +19.9 +10.7 55 +22 +22 комфорт 1016.6 977.2
20 13.07 СВ 1
{2}
н/о н/о +15.7 +12.1 79 +17 +17 1017.9 977.8
21 13.07 Ю 1
{4}
н/о н/о +14.3 +11.9 85 +15 +15 1018.5 978.2
22 13.07 штиль 0
{2}
н/о н/о +13.3 +11.3 88 +13 +13 1018.7 978.2
23 13.07 В 1
{2}
н/о н/о +12.4 +10.9 91 +13 +13 1018.6 978.0
00 14.07 Ю 1
{4}
н/о н/о +11.7 +10.7 94 +12 +12 1018.4 977.7
01 14.07 штиль 0
{1}
н/о н/о +11.0 +10.2 95 +10 +10 1018.3 977.5
02 14.07 В 1
{1}
н/о н/о +10.5 +10.0 97 +11 +11 1017.9 977.1
03 14.07 ЮВ 1
{1}
н/о н/о +9.9 +9.4 97 +10 +10 1017.6 976.7
04 14.07 ЮВ 1
{1}
н/о н/о +9.7 +9.3 97 +10 +10 1017.4 976.5
05 14.07 Ю 1
{1}
н/о н/о +11.4 +11.1 98 +12 +12 1017.0 976.3
06 14.07 штиль 0
{1}
н/о н/о +13.8 +11.9 88 +13 +13 1016.5 976.2 +9.3
07 14.07 СВ 1
{2}
н/о н/о +16.4 +11.6 73 +18 +18 1016.1 976.2
08 14.07 В 2
{5}
н/о н/о +19.5 +12.8 65 +21 +21 комфорт 1015.6 976.1
09 14.07 СВ 4
{6}
н/о н/о +21.4 +12.5 57 +24 +24 комфорт 1014.9 975.7
10 14.07 В 3
{6}
н/о н/о +23.0 +11.8 49 +25 +25 комфорт 1014.2 975.3
11 14.07 В 4
{8}
н/о н/о +23.4 +11.2 46 +26 +26 жарко 1013.6 974.8
12 14.07 ЮВ 3
{8}
н/о н/о +24.3 +10.2 41 +25 +25 комфорт 1012.7 974.0
13 14.07 В 2
{6}
н/о н/о +23.3 +10.3 44 +25 +25 комфорт 1012.2 973.4
14 14.07 С 5
{10}
н/о н/о +21.3 +11.4 53 +23 +23 комфорт 1012.6 973.5
15 14.07 СВ 4
{10}
н/о н/о +21.8 +11.9 53 +24 +24 комфорт 1012.6 973.6
16 14.07 СВ 6
{12}
н/о н/о +20.4 +10.6 53 +22 +22 комфорт 1012.8 973.6
17 14.07 В 3
{10}
н/о н/о +19.2 +10.3 56 +20 +20 1013.4 974.0
18 14.07 З 2
{12}
н/о н/о +18.7 +10.9 60 +20 +20 1014.3 974.8 +25.3
19 14.07 С 1
{5}
н/о н/о +17.9 +10.8 63 +19 +19 1014.9 975.2
20 14.07 Ю 2
{6}
н/о н/о +16.7 +12.0 74 +17 +17 1015.2 975.4
21 14.07 Ю 2
{6}
н/о н/о +15.7 +13.2 85 +16 +16 1015.6 975.6 0.3
22 14.07 З 1
{3}
н/о н/о +14.6 +14.0 96 +16 +16 1016.2 976.0 3
23 14.07 СЗ 1
{3}
н/о н/о +14.6 +14.2 97 +15 +15 1016.0 975.8 2
00 15.07 З 2
{6}
н/о н/о +14.3 +14.0 98 +14 +14 1015.5 975.3 0.2
01 15.07 ЮЗ 1
{3}
н/о н/о +14.1 +13.8 98 +14 +14 1015.0 974.8 0.2
02 15.07 ЮВ 1
{3}
н/о н/о +13.9 +13.5 97 +15 +15 1014.9 974.7
03 15.07 Ю 1
{3}
н/о н/о +13.6 +13.4 99 +14 +14 1015.0 974.7
04 15.07 Ю 1
{3}
н/о н/о +13.5 +13.3 99 +14 +14 1014.8 974.5
05 15.07 В 1
{2}
н/о н/о +13.8 +12.8 94 +15 +15 1014.8 974.6
06 15.07 ЮВ 1
{3}
н/о н/о +14.5 +13.8 96 +15 +15 1015.5 975.3 +13.3
07 15.07 В 1
{2}
н/о н/о +15.7 +13.2 85 +17 +17 1015.5 975.5
08 15.07 СВ 3
{7}
н/о н/о +17.0 +12.9 77 +17 +17 1015.5 975.7
09 15.07 В 3
{7}
н/о н/о +18.2 +12.9 71 +19 +19 1015.4 975.8
10 15.07 В 3
{6}
н/о н/о +19.1 +13.0 68 +21 +21 комфорт 1015.4 975.9
11 15.07 СВ 2
{6}
н/о н/о +20.3 +12.6 61 +23 +23 комфорт 1015.0 975.7
12 15.07 В 3
{8}
н/о н/о +22.2 +12.8 55 +25 +25 комфорт 1014.3 975.3
13 15.07 СВ 3
{7}
н/о н/о +21.9 +12.3 54 +24 +24 комфорт 1014.3 975.2
14 15.07 СВ 3
{6}
н/о н/о +24.1 +12.5 48 +26 +26 жарко 1014.0 975.2
15 15.07 С 4
{7}
н/о н/о +23.1 +12.6 52 +26 +26 жарко 1013.9 975.0
16 15.07 СВ 3
{6}
н/о н/о +24.0 +12.7 49 +26 +26 жарко 1013.6 974.8
17 15.07 С 3
{7}
н/о н/о +23.6 +12.4 49 +25 +25 комфорт 1013.8 975.0
18 15.07 СВ 2
{7}
н/о н/о +23.2 +12.4 51 +26 +26 жарко 1014.1 975.2 +24.3
19 15.07 СВ 2
{6}
н/о н/о +21.3 +12.4 57 +24 +24 комфорт 1014.8 975.6
20 15.07 В 1
{3}
н/о н/о +19.1 +12.7 66 +21 +21 комфорт 1015.7 976.2
21 15.07 В 2
{6}
н/о н/о +17.7 +12.7 73 +18 +18 1016.4 976.7
22 15.07 ЮВ 2
{3}
н/о н/о +16.1 +12.8 81 +16 +16 1017.1 977.1
23 15.07 ЮВ 1
{4}
н/о н/о +15.0 +12.5 85 +15 +15 1017.5 977.3
00 16.07 З 1
{6}
н/о н/о +13.5 +12.5 94 +14 +14 1017.9 977.5
01 16.07 штиль 0
{1}
н/о н/о +12.5 +12.1 97 +12 +12 1018.1 977.6
02 16.07 ЮВ 1
{1}
н/о н/о +12.4 +12.0 97 +13 +13 1018.4 977.8
03 16.07 штиль 0
{1}
н/о н/о +11.6 +11.3 98 +11 +11 1018.5 977.8
04 16.07 штиль 0
{1}
н/о н/о +11.1 +11.0 99 +10 +10 1018.6 977.8
05 16.07 Ю 1
{1}
н/о н/о +12.7 +12.5 99 +13 +13 1018.5 978.0
06 16.07 З 1
{2}
н/о н/о +14.6 +13.5 93 +15 +15 1018.4 978.1 +11.0
07 16.07 З 1
{3}
н/о н/о +16.2 +13.5 84 +17 +17 1018.2 978.2
08 16.07 ЮЗ 1
{3}
н/о н/о +18.7 +13.1 70 +21 +21 комфорт 1017.5 977.9
09 16.07 СЗ 1
{3}
н/о н/о +20.6 +13.5 64 +24 +24 комфорт 1017.0 977.6
10 16.07 ЮЗ 2
{3}
н/о н/о +22.0 +13.5 59 +25 +25 комфорт 1016.7 977.5
11 16.07 З 2
{5}
н/о н/о +24.2 +13.5 51 +26 +26 жарко 1015.9 977.1
12 16.07 З 3
{6}
н/о н/о +25.5 +12.7 45 +27 +27 жарко 1015.1 976.5
13 16.07 З 3
{6}
н/о н/о +26.4 +10.2 36 +27 +27 жарко 1014.5 976.0
14 16.07 З 2
{5}
н/о н/о +26.9 +9.3 33 +27 +27 жарко 1014.1 975.7
15 16.07 З 2
{6}
н/о н/о +27.3 +9.9 34 +28 +28 жарко 1013.8 975.5
16 16.07 З 3
{6}
н/о н/о +27.4 +9.8 33 +28 +28 жарко 1013.5 975.2
17 16.07 З 4
{6}
н/о н/о +27.0 +10.4 35 +28 +28 жарко 1013.3 975.0
18 16.07 З 3
{6}
н/о н/о +25.3 +9.2 36 +26 +26 жарко 1013.6 975.0 +27.7
19 16.07 ЮЗ 1
{4}
н/о н/о +20.7 +12.7 60 +24 +24 комфорт 1014.4 975.2
20 16.07 З 1
{2}
н/о н/о +17.8 +12.5 71 +19 +19 1015.3 975.6
21 16.07 Ю 1
{4}
н/о н/о +16.0 +12.6 80 +17 +17 1015.9 975.9
22 16.07 ЮВ 1
{1}
н/о н/о +14.8 +12.7 87 +16 +16 1016.1 976.0
23 16.07 Ю 1
{1}
н/о н/о +14.1 +12.2 88 +15 +15 1016.5 976.2
00 17.07 штиль 0
{4}
н/о н/о +13.6 +12.0 90 +13 +13 1016.6 976.3
01 17.07 В 1
{1}
н/о н/о +13.0 +11.7 92 +14 +14 1016.5 976.1
02 17.07 Ю 1
{1}
н/о н/о +12.6 +11.6 94 +13 +13 1016.4 975.9
03 17.07 Ю 1
{1}
н/о н/о +11.7 +10.9 95 +12 +12 1016.2 975.6
04 17.07 ЮВ 1
{1}
н/о н/о +11.0 +10.5 97 +11 +11 1016.2 975.5
05 17.07 В 1
{1}
н/о н/о +12.8 +12.0 95 +14 +14 1015.8 975.4
06 17.07 В 1
{2}
н/о н/о +15.6 +12.7 83 +17 +17 1015.2 975.2 +11.0
07 17.07 В 1
{2}
н/о н/о +18.2 +12.8 71 +20 +20 1014.6 975.0
08 17.07 В 1
{2}
н/о н/о +21.1 +13.1 60 +23 +23 комфорт 1014.0 974.8
09 17.07 З 1
{3}
н/о н/о +23.7 +14.2 55 +26 +26 жарко 1013.4 974.6
10 17.07 ЮЗ 4
{6}
н/о н/о +26.3 +12.7 43 +28 +28 жарко 1012.6 974.2
11 17.07 З 5
{8}
н/о н/о +27.5 +11.9 38 +29 +29 жарко 1012.2 974.0
12 17.07 З 5
{9}
н/о н/о +27.8 +9.4 32 +28 +28 жарко 1012.0 973.8
13 17.07 З 4
{9}
н/о н/о +28.7 +7.4 26 +28 +28 жарко 1011.5 973.4
14 17.07 З 4
{9}
н/о н/о +28.9 +4.4 21 +27 +27 жарко 1011.1 973.1
15 17.07 З 4
{9}
н/о н/о +28.8 +3.9 20 +27 +27 жарко 1010.7 972.7
16 17.07 З 4
{9}
н/о н/о +28.4 +4.1 21 +27 +27 жарко 1010.2 972.2
17 17.07 З 4
{7}
н/о н/о +28.0 +3.6 21 +26 +26 жарко 1010.1 972.0
18 17.07 З 2
{9}
н/о н/о +26.4 +6.2 28 +26 +26 жарко 1010.3 972.0 +29.0
19 17.07 ЮЗ 2
{3}
н/о н/о +20.5 +9.9 51 +23 +23 комфорт 1011.4 972.2
20 17.07 З 2
{4}
н/о н/о +18.6 +8.8 53 +20 +20 1012.0 972.6
21 17.07 З 1
{4}
н/о н/о +16.5 +10.2 66 +18 +18 1012.7 972.9
22 17.07 ЮВ 1
{1}
н/о н/о +14.4 +10.7 78 +16 +16 1013.3 973.2
23 17.07 В 1
{1}
н/о н/о +13.7 +10.6 82 +15 +15 1013.7 973.5
00 18.07 ЮВ 1
{4}
н/о н/о +13.2 +10.8 85 +14 +14 1013.9 973.6
01 18.07 ЮВ 1
{1}
н/о н/о +12.9 +10.3 84 +14 +14 1013.9 973.6
02 18.07 штиль 0
{1}
н/о н/о +12.8 +11.0 89 +12 +12 1013.8 973.5
03 18.07 штиль 0
{1}
н/о н/о +12.4 +10.8 90 +12 +12 1013.8 973.4
04 18.07 В 1
{1}
н/о н/о +12.4 +10.8 90 +13 +13 1013.9 973.5
05 18.07 штиль 0
{1}
н/о н/о +13.0 +11.6 91 +12 +12 1013.9 973.6
06 18.07 З 1
{1}
н/о н/о +14.9 +12.2 84 +16 +16 1014.1 974.1 +12.0
07 18.07 СВ 1
{2}
н/о н/о +17.5 +12.1 71 +19 +19 1013.9 974.2
08 18.07 ЮВ 1
{2}
н/о н/о +20.1 +12.5 62 +23 +23 комфорт 1013.6 974.3
09 18.07 З 2
{3}
н/о н/о +22.9 +11.8 50 +25 +25 комфорт 1012.9 974.0
10 18.07 ЮЗ 5
{8}
н/о н/о +26.8 +9.3 33 +27 +27 жарко 1012.0 973.7
11 18.07 ЮЗ 6
{9}
н/о н/о +28.0 +10.0 32 +28 +28 жарко 1011.8 973.6
12 18.07 З 5
{9}
н/о н/о +28.8 +9.7 30 +29 +29 жарко 1011.5 973.5
13 18.07 З 4
{8}
н/о н/о +29.0 +9.0 29 +29 +29 жарко 1011.2 973.2
14 18.07 З 3
{8}
н/о н/о +29.0 +9.1 29 +29 +29 жарко 1011.2 973.2
15 18.07 З 3
{8}
н/о н/о +28.7 +9.1 29 +28 +28 жарко 1010.9 972.9
16 18.07 З 3
{7}
н/о н/о +28.2 +10.0 32 +28 +28 жарко 1010.8 972.7
17 18.07 ЮЗ 2
{6}
н/о н/о +27.6 +10.2 34 +28 +28 жарко 1011.0 972.8
18 18.07 ЮЗ 2
{8}
н/о н/о +25.5 +12.4 44 +27 +27 жарко 1011.5 973.0 +29.3
19 18.07 штиль 0
{2}
н/о н/о +22.1 +13.8 59 +25 +25 комфорт 1012.5 973.5
20 18.07 ЮЗ 2
{2}
н/о н/о +20.4 +14.1 67 +24 +24 комфорт 1013.6 974.3
21 18.07 ЮЗ 1
{2}
н/о н/о +20.1 +14.5 70 +24 +24 комфорт 1013.9 974.6
22 18.07 Ю 3
{3}
н/о н/о +19.6 +14.2 71 +22 +22 комфорт 1014.2 974.8
23 18.07 З 1
{3}
н/о н/о +19.3 +14.5 74 +22 +22 комфорт 1014.6 975.2
00 19.07 ЮЗ 1
{3}
н/о н/о +18.4 +14.3 77 +21 +21 комфорт 1014.9 975.3
01 19.07 З 1
{2}
н/о н/о +17.3 +14.0 81 +19 +19 1015.3 975.5
02 19.07 штиль 0
{1}
н/о н/о +15.9 +14.0 88 +16 +16 1015.6 975.6
03 19.07 ЮВ 1
{2}
н/о н/о +15.1 +13.8 92 +16 +16 1016.0 975.9
04 19.07 Ю 1
{1}
н/о н/о +15.4 +14.0 91 +17 +17 1016.0 976.0
05 19.07 штиль 0
{1}
н/о н/о +16.5 +14.8 90 +16 +16 1016.1 976.2
06 19.07 штиль 0
{2}
н/о н/о +17.4 +14.7 84 +17 +17 1016.4 976.6 +14.9
07 19.07 З 1
{2}
н/о н/о +20.0 +14.5 71 +23 +23 комфорт 1016.2 976.8
08 19.07 ЮЗ 5
{7}
н/о н/о +23.0 +12.9 53 +26 +26 жарко 1015.9 976.9
09 19.07 ЮЗ 4
{7}
н/о н/о +24.8 +13.5 49 +27 +27 жарко 1015.6 976.9
10 19.07 ЮЗ 5
{8}
н/о н/о +26.4 +13.4 45 +28 +28 жарко 1015.2 976.7
11 19.07 З 4
{8}
н/о н/о +26.7 +13.1 43 +28 +28 жарко 1015.0 976.5
12 19.07 ЮЗ 4
{8}
н/о н/о +27.9 +13.2 40 +30 +30 жарко 1014.4 976.1
13 19.07 З 4
{8}
н/о н/о +28.1 +13.2 40 +30 +30 жарко 1014.1 975.9
14 19.07 З 3
{7}
н/о н/о +28.0 +12.8 39 +29 +29 жарко 1013.7 975.5
15 19.07 З 4
{8}
н/о н/о +28.6 +13.2 39 +30 +30 жарко 1013.4 975.3
16 19.07 З 3
{7}
н/о н/о +28.1 +13.1 40 +30 +30 жарко 1013.1 974.9
17 19.07 З 2
{6}
н/о н/о +27.9 +13.3 41 +30 +30 жарко 1013.0 974.8
18 19.07 З 2
{8}
н/о н/о +27.0 +13.6 44 +29 +29 жарко 1013.0 974.7 +28.6
19 19.07 Ю 2
{4}
н/о н/о +23.0 +14.8 60 +27 +27 душно 1013.7 974.8
20 19.07 ЮЗ 1
{2}
н/о н/о +19.9 +15.0 73 +23 +23 комфорт 1014.8 975.4
21 19.07 штиль 0
{4}
н/о н/о +18.5 +15.0 80 +19 +19 1015.2 975.6
22 19.07 В 1
{1}
н/о н/о +17.1 +14.6 85 +18 +18 1015.8 976.0
23 19.07 В 1
{2}
н/о н/о +16.5 +14.2 86 +18 +18 1015.9 976.0
00 20.07 ЮВ 1
{4}
н/о н/о +15.8 +13.5 86 +16 +16 1015.8 975.8

 

Местоположение метеостанции Лайбштадт (Швейцария): широта 47.60 долгота 8.18 высота над уровнем моря 341 м.

В архиве по умолчанию представлена погода в Лайбштадте за последнюю неделю. Архивные данные за месяц целиком и за предыдущие месяцы, начиная с января 2011 года, Вы можете получить, выбрав интересующий диапазон дат из раскрывающегося списка и нажав кнопку "Ввод!".


*Определитесь, кто Вы:
робот инопланетянин человек

Внимание! Время в таблицах - всемирное. Для получения местного времени необходимо прибавить поправку, которая равна 1 ч.

Смотрите также архив погоды в соседних городах и на ближайших метеорологических станциях:

Погода на Бецнау (Швейцария) (5 км)
Погода в Институте Пауля Шеррера (Швейцария) (9 км)
Погода в Лауфенбурге (Швейцария) (11 км)
Погода в Бругг-Вилдегге (Швейцария) (14 км)
Погода в Тразадингене (Швейцария) (20 км)
Погода на Легерне (Швейцария) (21 км)
Погода в Мёлине (Швейцария) (23 км)
Погода в Халлау (Швейцария) (24 км)
Погода в Букс-Зуре (Швейцария) (26 км)
Погода в Рейнфельдене (Швейцария) (29 км)

Пояснения к столбцам:

Ветер - указаны скорость ветра в м/с - средняя за 10 мин, порывы в срок и между сроками (в фигурных скобках) и направление, откуда дует ветер: С - северный, СВ - северо-восточный, В - восточный, ЮВ - юго-восточный, Ю - южный, ЮЗ - юго-западный, З - западный, СЗ - северо-западный.
Видимость - горизонтальная дальность видимости в метрах или километрах. При видимости от 1 до 10 км при отсутствии осадков обычно наблюдается дымка, при ухудшении видимости до 1 км и менее - туман. В сухую погоду видимость может ухудшаться дымом, пылью или мглою.
Явления - указаны атмосферные явления, наблюдавшиеся в срок или в последний час перед сроком; фигурными скобками обозначены явления, наблюдавшиеся между сроками (за 1-3 часа до срока); квадратными скобками обозначены град или гололедные отложения с указанием их диаметра в мм.
Облачность - указаны через наклонную черту общая и нижняя облачность в баллах и высота нижней границы облаков в метрах; квадратными скобками обозначены формы облаков: Ci - перистые, Cs - перисто-слоистые, Cc - перисто-кучевые, Ac - высококучевые, As - высокослоистые, Sc - слоисто-кучевые, Ns - слоисто-дождевые, Cu - кучевые, Cb - кучево-дождевые. Подробнее классификацию облаков см. в Атласе облаков (PDF).
T - Температура воздуха - температура, измеренная на высоте 2 м над землей.
Td - Температура точки росы - температура, при понижении до которой содержащийся в воздухе водяной пар достигнет насыщения.
f - Относительная влажность воздуха - влажноcть воздуха, измеренная на высоте 2 м над землей.
Te - Эффективная температура - температура, которую ощущает одетый по сезону человек в тени. Характеристика душности погоды. При расчете учитывается влияние влажности воздуха и скорости ветра на теплоощущения человека.
Tes - Эффективная температура на солнце - температура, которую ощущает человек, с поправкой на солнечный нагрев. Характеристика знойности погоды. Зависит от высоты солнца над горизонтом, облачности и скорости ветра. Ночью, в пасмурную погоду, а также при ветре 12 м/с и более поправка равна нулю.
P - Атмосферное давление - приведенное к уровню моря атмосферное давление.
Po - Атмосферное давление - измеренное на уровне метеостанции атмосферное давление.
Tmin - Минимальная температура - минимум температуры воздуха на высоте 2 м над землей.
Tmax - Максимальная температура - максимум температуры воздуха на высоте 2 м над землей.
R - Количество осадков - Количество выпавших осадков за период времени, мм. При наведении курсора мыши на число - период времени, за который выпало указанное количество осадков.
R24 - Количество осадков - Количество выпавших осадков за 24 часа, мм.
S - Снежный покров - Высота снежного покрова, см. При наведении курсора мыши на число - состояние снежного покрова и степень покрытия местности в баллах.